Weather History for KTCM - November, 2012

Change the Weather History Date:

Wednesday, November 14, 2012

  Actual Average Record
Temperature  
Mean Temperature 42 °F -  
Max Temperature 51 °F 50 °F 64 °F (1995)
Min Temperature 33 °F 35 °F 6 °F (1955)
Degree Days  
Heating Degree Days 23    
Moisture  
Dew Point 42 °F    
Average Humidity 96    
Maximum Humidity 100    
Minimum Humidity 82    
Precipitation  
Precipitation 0.00 in - - ()
Sea Level Pressure  
Sea Level Pressure 30.28 in    
Wind  
Wind Speed 3 mph (South)    
Max Wind Speed 8 mph    
Max Gust Speed -    
Visibility 6 miles    
Events Fog    
Averages and records for this station are not official NWS values.
T = Trace of Precipitation, MM = Missing Value Source: NWS Daily Summary

Daily Weather History Graph

Daily Weather History Graph

Search for Another Location

Airport or City:

Trip Planner

Search our weather history database for the weather conditions in past years. The results will help you decide how hot, cold, wet, or windy it might be!

Date:

Astronomy

Nov. 14, 2012 Rise Set
Actual Time 7:13 AM PST 4:35 PM PST
Civil Twilight 6:39 AM PST 5:08 PM PST
Nautical Twilight 6:02 AM PST 5:45 PM PST
Astronomical Twilight 5:26 AM PST 6:21 PM PST
Moon 8:12 AM PST (11/14) 5:24 PM PST (11/14)
Length of Visible Light 10h 28m
Length of Day
9h 22m
New Moon, 1% of the Moon is Illuminated
Nov 14
New Moon
Nov 20
First Quarter
Nov 28
Full
Dec 6
Last Quarter
Dec 13
New

Hourly Weather History & Observations

Time (PST) Temp. Windchill Dew Point Humidity Pressure Visibility Wind Dir Wind Speed Gust Speed Precip Events Conditions
12:08 AM 48.2 °F - 46.4 °F 93% 30.18 in 10.0 mi South 3.5 mph - N/A   Overcast
12:13 AM 48.2 °F - 46.4 °F 93% 30.19 in 10.0 mi SSE 3.5 mph - N/A   Overcast
12:39 AM 48.2 °F - 48.2 °F 100% 30.20 in 9.0 mi SSW 3.5 mph - N/A   Light Drizzle
12:41 AM 48.2 °F - 48.2 °F 100% 30.20 in 9.0 mi SSW 3.5 mph - N/A   Light Drizzle
12:49 AM 48.2 °F - 48.2 °F 100% 30.19 in 10.0 mi South 4.6 mph - N/A   Overcast
12:56 AM 48.2 °F - 48.2 °F 100% 30.20 in 10.0 mi South 6.9 mph - N/A   Light Drizzle
12:58 AM 48.2 °F - 48.2 °F 100% 30.22 in 10.0 mi South 6.9 mph - 0.00 in   Light Drizzle
1:03 AM 48.2 °F - 48.2 °F 100% 30.20 in 10.0 mi South 8.1 mph - N/A   Light Drizzle
1:07 AM 48.2 °F - 48.2 °F 100% 30.20 in 10.0 mi South 5.8 mph - N/A   Overcast
1:12 AM 48.2 °F - 48.2 °F 100% 30.20 in 10.0 mi South 5.8 mph - N/A   Overcast
1:17 AM 48.2 °F - 48.2 °F 100% 30.20 in 10.0 mi South 5.8 mph - N/A   Overcast
1:37 AM 48.2 °F - 46.4 °F 93% 30.20 in 10.0 mi SSW 4.6 mph - N/A   Mostly Cloudy
1:42 AM 48.2 °F - 48.2 °F 100% 30.20 in 10.0 mi SSW 3.5 mph - N/A   Mostly Cloudy
1:57 AM 48.2 °F - 48.2 °F 100% 30.20 in 10.0 mi SSW 6.9 mph - N/A   Overcast
1:58 AM 48.2 °F - 48.0 °F 99% 30.22 in 10.0 mi SSW 6.9 mph - 0.00 in   Overcast
2:13 AM 48.2 °F - 48.2 °F 100% 30.21 in 10.0 mi SSW 5.8 mph - N/A   Mostly Cloudy
2:23 AM 48.2 °F - 48.2 °F 100% 30.20 in 10.0 mi South 5.8 mph - N/A   Mostly Cloudy
2:58 AM 46.8 °F - 46.4 °F 99% 30.23 in 10.0 mi South 6.9 mph - N/A   Overcast
3:58 AM 47.8 °F - 47.7 °F 99% 30.23 in 10.0 mi South 5.8 mph - N/A   Overcast
4:58 AM 46.9 °F - 46.6 °F 99% 30.24 in 10.0 mi South 4.6 mph - N/A   Overcast
5:58 AM 47.8 °F - 46.6 °F 95% 30.25 in 10.0 mi SSW 4.6 mph - N/A   Overcast
6:58 AM 46.9 °F - 46.6 °F 99% 30.27 in 10.0 mi Calm Calm - N/A   Overcast
7:13 AM 46.4 °F - 46.4 °F 100% 30.25 in 10.0 mi South 1.2 mph - N/A   Overcast
7:33 AM 46.4 °F - 46.4 °F 100% 30.26 in 10.0 mi Calm Calm - N/A   Overcast
7:43 AM 46.4 °F - 46.4 °F 100% 30.26 in 10.0 mi SSE 1.2 mph - N/A   Overcast
7:48 AM 46.4 °F - 46.4 °F 100% 30.27 in 10.0 mi Calm Calm - N/A   Overcast
7:58 AM 46.9 °F - 46.8 °F 99% 30.29 in 10.0 mi Calm Calm - N/A   Overcast
8:43 AM 48.2 °F - 48.2 °F 100% 30.28 in 10.0 mi WSW 3.5 mph - N/A   Overcast
8:49 AM 48.2 °F - 48.2 °F 100% 30.28 in 10.0 mi WSW 2.3 mph - N/A   Overcast
8:58 AM 48.6 °F - 48.0 °F 98% 30.30 in 10.0 mi SSW 2.3 mph - N/A   Overcast
9:18 AM 48.2 °F - 48.2 °F 100% 30.29 in 10.0 mi West 3.5 mph - N/A   Overcast
9:33 AM 48.2 °F - 48.2 °F 100% 30.29 in 10.0 mi West 5.8 mph - N/A   Overcast
9:53 AM 50.0 °F - 48.2 °F 94% 30.30 in 10.0 mi NW 2.3 mph - N/A   Overcast
9:58 AM 49.3 °F - 47.8 °F 95% 30.32 in 10.0 mi Variable 1.2 mph - N/A   Overcast
10:46 AM 50.0 °F - 46.4 °F 87% 30.31 in 10.0 mi Variable 3.5 mph - N/A   Overcast
10:47 AM 50.0 °F - 46.4 °F 87% 30.31 in 10.0 mi Variable 4.6 mph - N/A   Overcast
10:53 AM 50.0 °F - 48.2 °F 94% 30.31 in 10.0 mi NNW 4.6 mph - N/A   Overcast
10:56 AM 50.0 °F - 48.2 °F 94% 30.31 in 10.0 mi NW 5.8 mph - N/A   Overcast
11:12 AM 50.0 °F - 46.4 °F 87% 30.31 in 10.0 mi NW 4.6 mph - N/A   Overcast
11:20 AM 50.0 °F - 46.4 °F 87% 30.31 in 10.0 mi WNW 4.6 mph - N/A   Overcast
11:30 AM 50.0 °F - 46.4 °F 87% 30.31 in 10.0 mi Variable 3.5 mph - N/A   Overcast
11:56 AM 50.0 °F - 46.4 °F 87% 30.31 in 10.0 mi NW 3.5 mph - N/A   Overcast
12:00 PM 50.0 °F - 46.4 °F 87% 30.31 in 10.0 mi NW 3.5 mph - N/A   Overcast
12:04 PM 50.0 °F - 46.4 °F 87% 30.31 in 10.0 mi Variable 3.5 mph - N/A   Overcast
12:10 PM 50.0 °F - 46.4 °F 87% 30.31 in 10.0 mi NNW 4.6 mph - N/A   Overcast
12:55 PM - - 46.2 °F N/A% 30.32 in - NNE 4.6 mph - N/A   Unknown
12:56 PM 50.0 °F - 46.4 °F 87% 30.32 in 10.0 mi NNE 5.8 mph - N/A   Overcast
1:34 PM 50.0 °F - 46.4 °F 87% 30.32 in 10.0 mi NE 3.5 mph - N/A   Overcast
1:45 PM 51.8 °F - 46.4 °F 82% 30.31 in 10.0 mi NE 3.5 mph - N/A   Overcast
1:55 PM 51.3 °F - 46.0 °F 82% 30.31 in 10.0 mi NNW 4.6 mph - N/A   Overcast
2:00 PM 51.8 °F - 46.4 °F 82% 30.31 in 10.0 mi Calm Calm - N/A   Overcast
2:27 PM 51.8 °F - 46.4 °F 82% 30.31 in 10.0 mi North 4.6 mph - N/A   Overcast
2:48 PM 51.8 °F - 46.4 °F 82% 30.30 in 10.0 mi NNW 5.8 mph - N/A   Overcast
2:55 PM 51.1 °F - 45.9 °F 82% 30.31 in 10.0 mi NNW 8.1 mph - N/A   Overcast
2:58 PM 51.1 °F - 45.9 °F 82% 30.32 in 10.0 mi North 6.9 mph - N/A   Overcast
3:56 PM 50.0 °F - 46.4 °F 87% 30.31 in 10.0 mi NNE 5.8 mph - N/A   Overcast
4:58 PM 48.2 °F - 44.6 °F 87% 30.33 in 10.0 mi NE 2.3 mph - N/A   Overcast
5:58 PM 45.3 °F - 42.8 °F 91% 30.32 in 10.0 mi ENE 1.2 mph - N/A   Clear
6:58 PM 43.5 °F - 43.2 °F 99% 30.32 in 10.0 mi Calm Calm - N/A   Clear
7:43 PM 37.4 °F - 37.4 °F 100% 30.30 in 2.5 mi Calm Calm - N/A   Clear
7:48 PM 39.2 °F - 37.4 °F 93% 30.30 in 1.0 mi Calm Calm - N/A   Clear
7:53 PM 39.2 °F - 37.4 °F 93% 30.30 in 0.8 mi North 1.2 mph - N/A   Clear
7:58 PM 39.2 °F - 38.8 °F 99% 30.32 in 1.2 mi Calm Calm - N/A   Clear
8:03 PM 39.2 °F - 39.2 °F 100% 30.30 in 2.0 mi Calm Calm - N/A   Clear
8:08 PM 39.2 °F - 39.2 °F 100% 30.30 in 7.0 mi Calm Calm - N/A   Clear
8:18 PM 37.4 °F - 37.4 °F 100% 30.30 in 1.8 mi SE 2.3 mph - N/A   Clear
8:23 PM 37.4 °F - 37.4 °F 100% 30.30 in 0.5 mi SSE 2.3 mph - N/A Fog Fog
8:28 PM 37.4 °F - 37.4 °F 100% 30.30 in 0.5 mi SE 1.2 mph - N/A Fog Fog
8:33 PM 37.4 °F - 37.4 °F 100% 30.30 in 0.5 mi SSE 2.3 mph - N/A Fog Fog
8:38 PM 35.6 °F - 35.6 °F 100% 30.30 in 0.5 mi SE 2.3 mph - N/A Fog Fog
8:43 PM 35.6 °F - 35.6 °F 100% 30.30 in 0.8 mi North - - N/A   Clear
8:48 PM 35.6 °F - 35.6 °F 100% 30.30 in 0.5 mi Calm Calm - N/A Fog Fog
8:53 PM 37.4 °F - 35.6 °F 93% 30.30 in 0.5 mi Calm Calm - N/A Fog Fog
8:58 PM 37.2 °F - 37.0 °F 99% 30.32 in 0.5 mi Calm Calm - N/A Fog Fog
9:03 PM 37.4 °F - 37.4 °F 100% 30.30 in 0.5 mi Calm Calm - N/A Fog Fog
9:08 PM 35.6 °F - 35.6 °F 100% 30.30 in 0.8 mi Calm Calm - N/A   Clear
9:23 PM 37.4 °F - 37.4 °F 100% 30.30 in 0.8 mi Calm Calm - N/A   Clear
9:28 PM 35.6 °F - 35.6 °F 100% 30.30 in 1.0 mi Calm Calm - N/A   Clear
9:33 PM 35.6 °F - 35.6 °F 100% 30.30 in 1.2 mi North 2.3 mph - N/A   Clear
9:38 PM 35.6 °F - 33.8 °F 93% 30.30 in 0.8 mi Calm Calm - N/A   Clear
9:43 PM 35.6 °F - 35.6 °F 100% 30.29 in 0.5 mi Calm Calm - N/A Fog Fog
9:48 PM 35.6 °F - 35.6 °F 100% 30.30 in 0.5 mi Calm Calm - N/A Fog Fog
9:53 PM 35.6 °F - 35.6 °F 100% 30.29 in 0.5 mi Variable 1.2 mph - N/A Fog Fog
9:58 PM 36.5 °F - 36.3 °F 99% 30.31 in 0.5 mi South 2.3 mph - N/A Fog Fog
10:03 PM 35.6 °F - 35.6 °F 100% 30.29 in 1.0 mi SE 2.3 mph - N/A   Clear
10:13 PM 33.8 °F - 33.8 °F 100% 30.29 in 1.2 mi East 2.3 mph - N/A   Clear
10:23 PM 35.6 °F - 35.6 °F 100% 30.29 in 1.0 mi East 1.2 mph - N/A   Clear
10:28 PM 35.6 °F - 35.6 °F 100% 30.29 in 0.5 mi ENE 2.3 mph - N/A Fog Fog
10:33 PM 35.6 °F - 35.6 °F 100% 30.29 in 0.8 mi Variable 2.3 mph - N/A   Clear
10:38 PM 35.6 °F - 35.6 °F 100% 30.29 in 2.5 mi ESE 2.3 mph - N/A   Clear
10:43 PM 35.6 °F 32.8 °F 35.6 °F 100% 30.29 in 5.0 mi ENE 3.5 mph - N/A   Clear
10:58 PM 35.6 °F - 35.6 °F 100% 30.28 in 1.8 mi Calm Calm - N/A   Clear
11:03 PM 35.6 °F - 35.6 °F 100% 30.28 in 1.5 mi Calm Calm - N/A   Clear
11:08 PM 35.6 °F - 35.6 °F 100% 30.28 in 1.0 mi Calm Calm - N/A   Clear
11:13 PM 35.6 °F - 35.6 °F 100% 30.28 in 0.5 mi Variable 1.2 mph - N/A Fog Fog
11:18 PM 35.6 °F - 35.6 °F 100% 30.28 in 0.5 mi Calm Calm - N/A Fog Fog
11:23 PM 35.6 °F - 35.6 °F 100% 30.27 in 0.5 mi Calm Calm - N/A Fog Fog
11:28 PM 33.8 °F - 33.8 °F 100% 30.27 in 0.5 mi Calm Calm - N/A Fog Fog
11:33 PM 33.8 °F - 33.8 °F 100% 30.27 in 0.5 mi South 2.3 mph - N/A Fog Fog
11:38 PM 33.8 °F - 33.8 °F 100% 30.27 in 0.2 mi South 2.3 mph - N/A Fog Fog
11:48 PM 33.8 °F - 32.0 °F 93% 30.27 in 0.5 mi SSW 1.2 mph - N/A Fog Fog
11:53 PM 33.8 °F - 33.8 °F 100% 30.27 in 0.2 mi Calm Calm - N/A Fog Fog
11:58 PM 34.7 °F - 34.5 °F 99% 30.27 in 0.2 mi South 2.3 mph - N/A Fog Fog